Time,TemperatureF,DewpointF,PressureIn,WindDirection,WindDirectionDegrees,WindSpeedMPH,WindSpeedGustMPH,Humidity,HourlyPrecipIn,Conditions,Clouds,dailyrainin,SoftwareType,DateUTC
2013-01-13 00:01:00,45.0,45.0,17.60,East,85,0.0,0.0,100,0.00,,OVC002,0.00,VWS V14.01,2013-01-13 05:01:00,
2013-01-13 00:02:00,44.8,44.8,17.60,ENE,64,0.0,0.0,100,0.00,,OVC002,0.00,VWS V14.01,2013-01-13 05:02:00,
2013-01-13 00:03:00,44.8,44.8,17.60,ENE,65,0.0,0.0,100,0.00,,OVC002,0.00,VWS V14.01,2013-01-13 05:03:00,
2013-01-13 00:08:00,44.8,44.8,17.60,ENE,76,0.0,0.0,100,0.00,,OVC002,0.00,VWS V14.01,2013-01-13 05:08:00,
2013-01-13 00:13:00,44.6,44.6,17.60,East,91,0.0,0.0,100,0.00,,OVC002,0.00,VWS V14.01,2013-01-13 05:13:00,
2013-01-13 00:18:00,44.6,44.6,17.60,East,93,0.0,0.0,100,0.00,,OVC002,0.00,VWS V14.01,2013-01-13 05:18:00,
2013-01-13 00:23:00,44.4,44.4,17.60,East,80,0.0,0.0,100,0.00,,OVC002,0.00,VWS V14.01,2013-01-13 05:23:00,
2013-01-13 00:28:00,44.4,44.4,17.60,East,80,0.0,0.0,100,0.00,,OVC002,0.00,VWS V14.01,2013-01-13 05:28:00,
2013-01-13 00:33:00,44.2,44.2,17.60,ENE,75,0.0,0.0,100,0.00,,OVC002,0.00,VWS V14.01,2013-01-13 05:33:00,
2013-01-13 00:38:00,44.2,44.2,17.60,East,83,0.0,0.0,100,0.00,,OVC002,0.00,VWS V14.01,2013-01-13 05:38:00,
2013-01-13 00:43:00,44.1,44.1,17.60,East,81,0.0,0.0,100,0.00,,OVC002,0.00,VWS V14.01,2013-01-13 05:43:00,
2013-01-13 00:48:00,44.1,44.1,17.60,East,81,0.0,0.0,100,0.00,,OVC002,0.00,VWS V14.01,2013-01-13 05:48:00,
2013-01-13 00:53:00,44.1,44.1,17.60,East,80,0.0,0.0,100,0.00,,OVC002,0.00,VWS V14.01,2013-01-13 05:53:00,
2013-01-13 00:58:00,44.2,44.2,17.60,East,80,0.0,0.0,100,0.00,,OVC002,0.00,VWS V14.01,2013-01-13 05:58:00,
2013-01-13 01:03:00,44.2,44.2,17.60,ESE,105,0.0,0.0,100,0.00,,OVC002,0.00,VWS V14.01,2013-01-13 06:03:00,
2013-01-13 01:08:00,44.2,44.2,17.60,ESE,110,0.0,0.0,100,0.00,,OVC002,0.00,VWS V14.01,2013-01-13 06:08:00,
2013-01-13 01:13:00,44.2,44.2,17.60,ENE,77,0.0,0.0,100,0.00,,OVC002,0.00,VWS V14.01,2013-01-13 06:13:00,
2013-01-13 01:18:00,44.1,44.1,17.60,ENE,68,0.0,0.0,100,0.00,,OVC002,0.00,VWS V14.01,2013-01-13 06:18:00,
2013-01-13 01:23:00,44.1,44.1,17.60,NE,52,0.0,0.0,100,0.00,,OVC002,0.00,VWS V14.01,2013-01-13 06:23:00,
2013-01-13 01:28:00,44.2,44.2,17.60,East,83,0.0,0.0,100,0.00,,OVC002,0.00,VWS V14.01,2013-01-13 06:28:00,
2013-01-13 01:33:00,44.1,44.1,17.60,ENE,64,0.0,0.0,100,0.00,,OVC002,0.00,VWS V14.01,2013-01-13 06:33:00,
2013-01-13 01:38:00,43.9,43.9,17.60,East,85,0.0,0.0,100,0.00,,OVC002,0.00,VWS V14.01,2013-01-13 06:38:00,
2013-01-13 01:43:00,43.9,43.9,17.60,ENE,63,0.0,0.0,100,0.00,,OVC002,0.00,VWS V14.01,2013-01-13 06:43:00,
2013-01-13 01:48:00,43.9,43.9,17.60,ENE,71,0.0,0.0,100,0.00,,OVC002,0.00,VWS V14.01,2013-01-13 06:48:00,
2013-01-13 01:53:00,43.7,43.7,17.60,ENE,72,0.0,0.0,100,0.00,,OVC002,0.00,VWS V14.01,2013-01-13 06:53:00,
2013-01-13 01:58:00,43.7,43.7,17.60,ENE,73,0.0,0.0,100,0.00,,OVC002,0.00,VWS V14.01,2013-01-13 06:58:00,
2013-01-13 02:03:00,43.7,43.7,17.60,East,82,0.0,0.0,100,0.00,,OVC002,0.00,VWS V14.01,2013-01-13 07:03:00,
2013-01-13 02:08:00,43.7,43.7,17.60,NE,55,0.0,0.0,100,0.00,,OVC002,0.00,VWS V14.01,2013-01-13 07:08:00,
2013-01-13 02:13:00,43.7,43.7,17.60,East,92,0.0,0.0,100,0.00,,OVC002,0.00,VWS V14.01,2013-01-13 07:13:00,
2013-01-13 02:18:00,43.7,43.7,17.60,East,87,0.0,0.0,100,0.00,,OVC002,0.00,VWS V14.01,2013-01-13 07:18:00,
2013-01-13 02:23:00,43.5,43.5,17.60,East,88,0.0,0.0,100,0.00,,OVC002,0.00,VWS V14.01,2013-01-13 07:23:00,
2013-01-13 02:28:00,43.5,43.5,17.60,East,95,0.0,0.0,100,0.00,,OVC002,0.00,VWS V14.01,2013-01-13 07:28:00,
2013-01-13 02:33:00,43.5,43.5,17.60,ENE,62,0.0,0.0,100,0.00,,OVC002,0.00,VWS V14.01,2013-01-13 07:33:00,
2013-01-13 02:38:00,43.5,43.5,17.60,East,97,0.0,0.0,100,0.00,,OVC002,0.00,VWS V14.01,2013-01-13 07:38:00,
2013-01-13 02:43:00,43.5,43.5,17.60,ENE,72,0.0,0.0,100,0.00,,OVC002,0.00,VWS V14.01,2013-01-13 07:43:00,
2013-01-13 02:48:00,43.3,43.3,17.60,ENE,73,0.0,0.0,100,0.00,,OVC002,0.00,VWS V14.01,2013-01-13 07:48:00,
2013-01-13 02:53:00,43.3,43.3,17.60,East,91,0.0,0.0,100,0.00,,OVC002,0.00,VWS V14.01,2013-01-13 07:53:00,
2013-01-13 02:58:00,43.3,43.3,17.60,East,90,0.0,0.0,100,0.00,,OVC002,0.00,VWS V14.01,2013-01-13 07:58:00,
2013-01-13 03:03:00,43.3,43.3,17.60,East,88,0.0,0.0,100,0.00,,OVC002,0.00,VWS V14.01,2013-01-13 08:03:00,
2013-01-13 03:08:00,43.3,43.3,17.60,East,88,0.0,0.0,100,0.00,,OVC002,0.00,VWS V14.01,2013-01-13 08:08:00,
2013-01-13 03:13:00,43.5,43.5,17.60,East,88,0.0,0.0,100,0.00,,OVC002,0.00,VWS V14.01,2013-01-13 08:13:00,
2013-01-13 03:18:00,43.5,43.5,17.60,ESE,105,0.0,0.0,100,0.00,,OVC002,0.00,VWS V14.01,2013-01-13 08:18:00,
2013-01-13 03:23:00,43.5,43.5,17.60,East,88,0.0,0.0,100,0.00,,OVC002,0.00,VWS V14.01,2013-01-13 08:23:00,
2013-01-13 03:28:00,43.5,43.5,17.60,East,88,0.0,0.0,100,0.00,,OVC002,0.00,VWS V14.01,2013-01-13 08:28:00,
2013-01-13 03:33:00,43.5,43.5,17.60,East,88,0.0,0.0,100,0.00,,OVC002,0.00,VWS V14.01,2013-01-13 08:33:00,
2013-01-13 03:38:00,43.5,43.5,17.60,SE,136,0.0,0.0,100,0.00,,OVC002,0.00,VWS V14.01,2013-01-13 08:38:00,
2013-01-13 03:43:00,43.5,43.5,17.60,ESE,105,0.0,0.0,100,0.00,,OVC002,0.00,VWS V14.01,2013-01-13 08:43:00,
2013-01-13 03:48:00,43.5,43.5,17.60,SE,139,0.0,0.0,100,0.00,,OVC002,0.00,VWS V14.01,2013-01-13 08:48:00,
2013-01-13 03:53:00,43.5,43.5,17.60,SE,139,0.0,0.0,100,0.00,,OVC002,0.00,VWS V14.01,2013-01-13 08:53:00,
2013-01-13 03:58:00,43.5,43.5,17.60,SE,139,0.0,0.0,100,0.00,,OVC002,0.00,VWS V14.01,2013-01-13 08:58:00,
2013-01-13 04:03:00,43.5,43.5,17.60,SE,142,0.0,0.0,100,0.00,,OVC002,0.00,VWS V14.01,2013-01-13 09:03:00,
2013-01-13 04:08:00,43.5,43.5,17.60,SE,142,0.0,0.0,100,0.00,,OVC002,0.00,VWS V14.01,2013-01-13 09:08:00,
2013-01-13 04:12:00,43.5,43.5,17.60,SE,142,0.0,0.0,100,0.00,,OVC002,0.00,VWS V14.01,2013-01-13 09:12:00,
2013-01-13 04:17:00,43.5,43.5,17.60,ESE,103,0.0,0.0,100,0.00,,OVC002,0.00,VWS V14.01,2013-01-13 09:17:00,
2013-01-13 04:22:00,43.5,43.5,17.60,SE,128,0.0,0.0,100,0.00,,OVC002,0.00,VWS V14.01,2013-01-13 09:22:00,
2013-01-13 04:27:00,43.5,43.5,17.60,East,93,0.0,0.0,100,0.00,,OVC002,0.00,VWS V14.01,2013-01-13 09:27:00,
2013-01-13 04:32:00,43.5,43.5,17.60,ESE,102,0.0,0.0,100,0.00,,OVC002,0.00,VWS V14.01,2013-01-13 09:32:00,
2013-01-13 04:37:00,43.3,43.3,17.60,East,92,0.0,0.0,100,0.00,,OVC002,0.00,VWS V14.01,2013-01-13 09:37:00,
2013-01-13 04:42:00,43.3,43.3,17.60,East,96,0.0,0.0,100,0.00,,OVC002,0.00,VWS V14.01,2013-01-13 09:42:00,
2013-01-13 04:47:00,43.2,43.2,17.60,East,99,0.0,0.0,100,0.00,,OVC002,0.00,VWS V14.01,2013-01-13 09:47:00,
2013-01-13 04:52:00,43.0,43.0,17.60,ESE,103,0.0,0.0,100,0.00,,OVC002,0.00,VWS V14.01,2013-01-13 09:52:00,
2013-01-13 04:57:00,43.0,43.0,17.60,ESE,103,0.0,0.0,100,0.00,,OVC002,0.00,VWS V14.01,2013-01-13 09:57:00,
2013-01-13 05:02:00,43.2,43.2,17.60,East,81,0.0,0.0,100,0.00,,OVC002,0.00,VWS V14.01,2013-01-13 10:02:00,
2013-01-13 05:07:00,43.2,43.2,17.60,East,91,0.0,0.0,100,0.00,,OVC002,0.00,VWS V14.01,2013-01-13 10:07:00,
2013-01-13 05:12:00,43.2,43.2,17.60,East,91,0.0,0.0,100,0.00,,OVC002,0.00,VWS V14.01,2013-01-13 10:12:00,
2013-01-13 05:17:00,43.2,43.2,17.60,East,86,0.0,0.0,100,0.00,,OVC002,0.00,VWS V14.01,2013-01-13 10:17:00,
2013-01-13 05:22:00,43.3,43.3,17.60,East,87,0.0,0.0,100,0.00,,OVC002,0.00,VWS V14.01,2013-01-13 10:22:00,
2013-01-13 05:27:00,43.3,43.3,17.60,East,94,0.0,0.0,100,0.00,,OVC002,0.00,VWS V14.01,2013-01-13 10:27:00,
2013-01-13 05:32:00,43.3,43.3,17.60,ESE,108,0.0,0.0,100,0.00,,OVC002,0.00,VWS V14.01,2013-01-13 10:32:00,
2013-01-13 05:37:00,43.3,43.3,17.60,East,91,0.0,2.7,100,0.00,,OVC002,0.00,VWS V14.01,2013-01-13 10:37:00,
2013-01-13 05:42:00,43.3,43.3,17.60,East,88,0.0,0.0,100,0.00,,OVC002,0.00,VWS V14.01,2013-01-13 10:42:00,
2013-01-13 05:47:00,43.2,43.2,17.60,East,80,0.0,0.0,100,0.00,,OVC002,0.00,VWS V14.01,2013-01-13 10:47:00,
2013-01-13 05:52:00,43.2,43.2,17.60,ENE,75,4.0,4.0,100,0.00,,OVC002,0.00,VWS V14.01,2013-01-13 10:52:00,
2013-01-13 05:57:00,43.2,43.2,17.60,East,98,0.0,0.0,100,0.00,,OVC002,0.00,VWS V14.01,2013-01-13 10:57:00,
2013-01-13 06:02:00,43.0,43.0,17.60,ENE,70,0.0,0.0,100,0.00,,OVC002,0.00,VWS V14.01,2013-01-13 11:02:00,
2013-01-13 06:07:00,43.0,43.0,17.60,East,84,0.0,0.0,100,0.00,,OVC002,0.00,VWS V14.01,2013-01-13 11:07:00,
2013-01-13 06:12:00,43.0,43.0,17.60,East,94,0.0,0.0,100,0.00,,OVC002,0.00,VWS V14.01,2013-01-13 11:12:00,
2013-01-13 06:17:00,43.2,43.2,17.60,East,91,0.0,0.0,100,0.00,,OVC002,0.00,VWS V14.01,2013-01-13 11:17:00,
2013-01-13 06:22:00,43.2,43.2,17.60,East,97,0.0,0.0,100,0.00,,OVC002,0.00,VWS V14.01,2013-01-13 11:22:00,
2013-01-13 06:27:00,43.2,43.2,17.60,East,96,0.0,0.0,100,0.00,,OVC002,0.00,VWS V14.01,2013-01-13 11:27:00,
2013-01-13 06:32:00,43.3,43.3,17.60,SE,126,0.0,0.0,100,0.00,,OVC002,0.00,VWS V14.01,2013-01-13 11:32:00,
2013-01-13 06:37:00,43.3,43.3,17.60,ESE,103,0.0,0.0,100,0.00,,OVC002,0.00,VWS V14.01,2013-01-13 11:37:00,
2013-01-13 06:42:00,43.3,43.3,17.60,ESE,111,0.0,0.0,100,0.00,,OVC002,0.00,VWS V14.01,2013-01-13 11:42:00,
2013-01-13 06:47:00,43.3,43.3,17.60,East,99,0.0,0.0,100,0.00,,OVC002,0.00,VWS V14.01,2013-01-13 11:47:00,
2013-01-13 06:52:00,43.3,43.3,17.60,East,98,0.0,2.2,100,0.00,,OVC002,0.00,VWS V14.01,2013-01-13 11:52:00,
2013-01-13 06:57:00,43.3,43.3,17.60,ESE,115,0.0,0.0,100,0.00,,OVC002,0.00,VWS V14.01,2013-01-13 11:57:00,
2013-01-13 07:02:00,43.3,43.3,17.60,East,79,0.0,0.0,100,0.00,,OVC002,0.00,VWS V14.01,2013-01-13 12:02:00,
2013-01-13 07:07:00,43.3,43.3,17.60,ESE,104,0.0,0.0,100,0.00,,OVC002,0.00,VWS V14.01,2013-01-13 12:07:00,
2013-01-13 07:12:00,43.3,43.3,17.60,ESE,118,0.0,0.0,100,0.00,,OVC002,0.00,VWS V14.01,2013-01-13 12:12:00,
2013-01-13 07:17:00,43.5,43.5,17.60,ENE,59,0.0,0.0,100,0.00,,OVC002,0.00,VWS V14.01,2013-01-13 12:17:00,
2013-01-13 07:22:00,43.5,43.5,17.60,ENE,78,0.0,0.0,100,0.00,,OVC002,0.00,VWS V14.01,2013-01-13 12:22:00,
2013-01-13 07:27:00,43.5,43.5,17.60,ENE,63,0.0,0.0,100,0.00,,OVC002,0.00,VWS V14.01,2013-01-13 12:27:00,
2013-01-13 07:32:00,43.5,43.5,17.60,East,90,0.0,0.0,100,0.00,,OVC002,0.00,VWS V14.01,2013-01-13 12:32:00,
2013-01-13 07:37:00,43.7,43.7,17.60,NE,54,2.2,2.2,100,0.00,,OVC002,0.00,VWS V14.01,2013-01-13 12:37:00,
2013-01-13 07:42:00,43.7,43.7,17.60,East,89,0.0,0.0,100,0.00,,OVC002,0.00,VWS V14.01,2013-01-13 12:42:00,
2013-01-13 07:47:00,43.7,43.7,17.60,East,89,3.1,3.1,100,0.00,,OVC002,0.00,VWS V14.01,2013-01-13 12:47:00,
2013-01-13 07:52:00,43.7,43.7,17.60,East,99,0.0,0.0,100,0.00,,OVC002,0.00,VWS V14.01,2013-01-13 12:52:00,
2013-01-13 07:57:00,43.9,43.9,17.60,ESE,104,0.0,0.0,100,0.00,,OVC002,0.00,VWS V14.01,2013-01-13 12:57:00,
2013-01-13 08:02:00,43.9,43.9,17.60,East,95,0.0,2.2,100,0.00,,OVC002,0.00,VWS V14.01,2013-01-13 13:02:00,
2013-01-13 08:07:00,44.1,44.1,17.60,East,93,0.0,0.0,100,0.00,,OVC002,0.00,VWS V14.01,2013-01-13 13:07:00,
2013-01-13 08:12:00,44.2,44.2,17.60,East,99,0.0,0.0,100,0.00,,OVC002,0.00,VWS V14.01,2013-01-13 13:12:00,
2013-01-13 08:17:00,44.2,44.2,17.60,East,99,0.0,2.7,100,0.00,,OVC002,0.00,VWS V14.01,2013-01-13 13:17:00,
2013-01-13 08:22:00,44.6,44.6,17.60,ESE,105,0.0,0.0,100,0.00,,OVC002,0.00,VWS V14.01,2013-01-13 13:22:00,
2013-01-13 08:27:00,44.6,44.6,17.60,ESE,118,3.1,3.1,100,0.00,,OVC002,0.00,VWS V14.01,2013-01-13 13:27:00,
2013-01-13 08:32:00,44.6,44.6,17.60,ESE,122,4.0,4.0,100,0.00,,OVC002,0.00,VWS V14.01,2013-01-13 13:32:00,
2013-01-13 08:37:00,44.4,44.4,17.60,SE,132,0.0,3.1,100,0.00,,OVC002,0.00,VWS V14.01,2013-01-13 13:37:00,
2013-01-13 08:42:00,44.6,44.6,17.60,East,100,0.0,0.0,100,0.00,,OVC002,0.00,VWS V14.01,2013-01-13 13:42:00,
2013-01-13 08:47:00,44.8,44.8,17.60,East,97,0.0,0.0,100,0.00,,OVC002,0.00,VWS V14.01,2013-01-13 13:47:00,
2013-01-13 08:52:00,45.0,45.0,17.60,East,89,0.0,4.0,100,0.00,,OVC002,0.00,VWS V14.01,2013-01-13 13:52:00,
2013-01-13 08:57:00,45.0,45.0,17.60,ESE,104,0.0,4.9,100,0.00,,OVC002,0.00,VWS V14.01,2013-01-13 13:57:00,
2013-01-13 09:02:00,45.1,45.1,17.60,East,100,0.0,0.0,100,0.00,,OVC002,0.00,VWS V14.01,2013-01-13 14:02:00,
2013-01-13 09:07:00,45.1,45.1,17.60,ENE,75,0.0,4.5,100,0.00,,OVC002,0.00,VWS V14.01,2013-01-13 14:07:00,
2013-01-13 09:12:00,45.3,45.3,17.60,East,100,0.0,2.7,100,0.00,,OVC002,0.00,VWS V14.01,2013-01-13 14:12:00,
2013-01-13 09:17:00,45.5,45.5,17.60,East,99,0.0,2.2,100,0.00,,OVC002,0.00,VWS V14.01,2013-01-13 14:17:00,
2013-01-13 09:22:00,45.7,45.7,17.60,East,97,0.0,0.0,100,0.00,,OVC002,0.00,VWS V14.01,2013-01-13 14:22:00,
2013-01-13 09:27:00,45.9,45.9,17.60,SE,130,0.0,3.1,100,0.00,,OVC002,0.00,VWS V14.01,2013-01-13 14:27:00,
2013-01-13 09:32:00,45.7,45.7,17.60,East,97,0.0,0.0,100,0.00,,OVC002,0.00,VWS V14.01,2013-01-13 14:32:00,
2013-01-13 09:37:00,45.7,45.7,17.60,SE,124,2.7,3.6,100,0.00,,OVC002,0.00,VWS V14.01,2013-01-13 14:37:00,
2013-01-13 09:42:00,45.7,45.7,17.60,ESE,103,0.0,0.0,100,0.00,,OVC002,0.00,VWS V14.01,2013-01-13 14:42:00,
2013-01-13 09:47:00,45.7,45.7,17.60,ESE,108,0.0,0.0,100,0.00,,OVC002,0.00,VWS V14.01,2013-01-13 14:47:00,
2013-01-13 09:52:00,45.7,45.7,17.60,ENE,76,0.0,0.0,100,0.00,,OVC002,0.00,VWS V14.01,2013-01-13 14:52:00,
2013-01-13 09:57:00,45.9,45.9,17.60,ESE,113,0.0,3.1,100,0.00,,OVC002,0.00,VWS V14.01,2013-01-13 14:57:00,
2013-01-13 10:02:00,45.9,45.9,17.60,ESE,108,0.0,2.7,100,0.00,,OVC002,0.00,VWS V14.01,2013-01-13 15:02:00,
2013-01-13 10:07:00,46.0,46.0,17.60,ESE,120,0.0,0.0,100,0.00,,OVC002,0.00,VWS V14.01,2013-01-13 15:07:00,
2013-01-13 10:12:00,46.2,46.2,17.60,ESE,117,0.0,4.9,100,0.00,,OVC002,0.00,VWS V14.01,2013-01-13 15:12:00,
2013-01-13 10:17:00,46.2,46.2,17.60,SE,141,0.0,2.7,100,0.00,,OVC002,0.00,VWS V14.01,2013-01-13 15:17:00,
2013-01-13 10:22:00,46.4,46.4,17.60,ESE,108,0.0,3.1,100,0.00,,OVC002,0.00,VWS V14.01,2013-01-13 15:22:00,
2013-01-13 10:27:00,46.4,46.4,17.60,SE,130,0.0,3.1,100,0.00,,OVC002,0.00,VWS V14.01,2013-01-13 15:27:00,
2013-01-13 10:32:00,46.8,46.8,17.60,SE,129,4.0,4.0,100,0.00,,OVC002,0.00,VWS V14.01,2013-01-13 15:32:00,
2013-01-13 10:37:00,46.9,46.9,17.60,SE,141,2.2,2.2,100,0.00,,OVC002,0.00,VWS V14.01,2013-01-13 15:37:00,
2013-01-13 10:42:00,47.1,47.1,17.60,ESE,104,0.0,3.1,100,0.00,,OVC002,0.00,VWS V14.01,2013-01-13 15:42:00,
2013-01-13 10:47:00,47.1,47.1,17.60,East,99,2.7,2.7,100,0.00,,OVC002,0.00,VWS V14.01,2013-01-13 15:47:00,
2013-01-13 10:52:00,47.3,47.3,17.60,East,79,2.7,3.6,100,0.00,,OVC002,0.00,VWS V14.01,2013-01-13 15:52:00,
2013-01-13 10:57:00,47.3,47.3,17.60,SE,128,0.0,2.2,100,0.00,,OVC002,0.00,VWS V14.01,2013-01-13 15:57:00,
2013-01-13 11:02:00,47.7,47.7,17.60,East,95,2.2,2.2,100,0.00,,OVC002,0.00,VWS V14.01,2013-01-13 16:02:00,
2013-01-13 11:07:00,48.0,48.0,17.60,ESE,112,0.0,2.2,100,0.00,,OVC002,0.00,VWS V14.01,2013-01-13 16:07:00,
2013-01-13 11:12:00,48.4,48.4,17.60,ESE,116,0.0,0.0,100,0.00,,OVC002,0.00,VWS V14.01,2013-01-13 16:12:00,
2013-01-13 11:17:00,48.7,48.7,17.60,ESE,110,3.1,3.1,100,0.00,,OVC002,0.00,VWS V14.01,2013-01-13 16:17:00,
2013-01-13 11:22:00,48.7,48.7,17.60,ESE,115,0.0,0.0,100,0.00,,OVC002,0.00,VWS V14.01,2013-01-13 16:22:00,
2013-01-13 11:27:00,48.7,48.7,17.60,East,97,0.0,0.0,100,0.00,,OVC002,0.00,VWS V14.01,2013-01-13 16:27:00,
2013-01-13 11:32:00,48.7,48.7,17.60,ESE,119,0.0,0.0,100,0.00,,OVC002,0.00,VWS V14.01,2013-01-13 16:32:00,
2013-01-13 11:37:00,48.4,48.4,17.60,SE,135,2.7,2.7,100,0.00,,OVC002,0.00,VWS V14.01,2013-01-13 16:37:00,
2013-01-13 11:42:00,48.2,48.2,17.60,ESE,114,0.0,0.0,100,0.00,,OVC002,0.00,VWS V14.01,2013-01-13 16:42:00,
2013-01-13 11:47:00,48.0,48.0,17.60,SE,134,3.1,3.1,100,0.00,,OVC002,0.00,VWS V14.01,2013-01-13 16:47:00,
2013-01-13 11:52:00,48.0,48.0,17.60,SE,126,0.0,2.2,100,0.00,,OVC002,0.00,VWS V14.01,2013-01-13 16:52:00,
2013-01-13 11:57:00,48.4,48.4,17.60,SE,129,0.0,0.0,100,0.00,,OVC002,0.00,VWS V14.01,2013-01-13 16:57:00,
2013-01-13 12:02:00,48.6,48.6,17.60,ESE,121,0.0,0.0,100,0.00,,OVC002,0.00,VWS V14.01,2013-01-13 17:02:00,
2013-01-13 12:07:00,48.4,48.4,17.60,ESE,102,0.0,3.1,100,0.00,,OVC002,0.00,VWS V14.01,2013-01-13 17:07:00,
2013-01-13 12:12:00,48.2,48.2,17.60,SSE,155,3.1,3.1,100,0.00,,OVC002,0.00,VWS V14.01,2013-01-13 17:12:00,
2013-01-13 12:17:00,48.0,48.0,17.60,SSE,154,0.0,0.0,100,0.00,,OVC002,0.00,VWS V14.01,2013-01-13 17:17:00,
2013-01-13 12:22:00,48.2,48.2,17.60,SE,131,0.0,0.0,100,0.00,,OVC003,0.00,VWS V14.01,2013-01-13 17:22:00,
2013-01-13 12:27:00,48.4,48.4,17.60,SE,129,0.0,0.0,100,0.00,,OVC003,0.00,VWS V14.01,2013-01-13 17:27:00,
2013-01-13 12:32:00,48.7,48.7,17.60,SSE,158,0.0,0.0,100,0.00,,OVC003,0.00,VWS V14.01,2013-01-13 17:32:00,
2013-01-13 12:37:00,48.7,48.7,17.60,ESE,112,2.2,2.2,100,0.00,,OVC003,0.00,VWS V14.01,2013-01-13 17:37:00,
2013-01-13 12:42:00,48.7,48.7,17.60,SE,138,2.2,2.2,100,0.00,,OVC004,0.00,VWS V14.01,2013-01-13 17:42:00,
2013-01-13 12:47:00,48.7,48.7,17.60,ESE,117,0.0,0.0,100,0.00,,OVC004,0.00,VWS V14.01,2013-01-13 17:47:00,
2013-01-13 12:52:00,48.9,48.9,17.60,ESE,108,3.6,3.6,100,0.00,,OVC004,0.00,VWS V14.01,2013-01-13 17:52:00,
2013-01-13 12:57:00,48.9,48.9,17.60,ESE,103,0.0,0.0,100,0.00,,OVC004,0.00,VWS V14.01,2013-01-13 17:57:00,
2013-01-13 13:02:00,48.7,48.7,17.60,ESE,121,3.1,3.1,100,0.00,,OVC050,0.00,VWS V14.01,2013-01-13 18:02:00,
2013-01-13 13:07:00,48.6,48.6,17.60,SE,130,2.2,2.2,100,0.00,,OVC050,0.00,VWS V14.01,2013-01-13 18:07:00,
2013-01-13 13:12:00,48.7,48.7,17.60,SE,127,0.0,0.0,100,0.00,,OVC050,0.00,VWS V14.01,2013-01-13 18:12:00,
2013-01-13 13:17:00,48.7,48.7,17.60,SE,143,0.0,0.0,100,0.00,,OVC050,0.00,VWS V14.01,2013-01-13 18:17:00,
2013-01-13 13:22:00,48.7,48.7,17.60,SE,146,2.2,3.1,100,0.00,,OVC005,0.00,VWS V14.01,2013-01-13 18:22:00,
2013-01-13 13:27:00,48.7,48.7,17.60,SE,129,0.0,0.0,100,0.00,,OVC005,0.00,VWS V14.01,2013-01-13 18:27:00,
2013-01-13 13:32:00,48.6,48.6,17.60,SE,133,0.0,0.0,100,0.00,,OVC005,0.00,VWS V14.01,2013-01-13 18:32:00,
2013-01-13 13:37:00,48.6,48.6,17.60,SE,129,0.0,0.0,100,0.00,,OVC005,0.00,VWS V14.01,2013-01-13 18:37:00,
2013-01-13 13:42:00,48.7,48.7,17.60,ESE,108,0.0,0.0,100,0.00,,OVC005,0.00,VWS V14.01,2013-01-13 18:42:00,
2013-01-13 13:47:00,48.9,48.9,17.60,East,84,0.0,0.0,100,0.00,,OVC005,0.00,VWS V14.01,2013-01-13 18:47:00,
2013-01-13 13:52:00,48.9,48.9,17.60,ESE,110,0.0,0.0,100,0.00,,OVC005,0.00,VWS V14.01,2013-01-13 18:52:00,
2013-01-13 13:57:00,48.9,48.9,17.60,ESE,104,0.0,0.0,100,0.00,,OVC005,0.00,VWS V14.01,2013-01-13 18:57:00,
2013-01-13 14:02:00,48.9,48.9,17.60,East,99,0.0,0.0,100,0.00,,OVC005,0.00,VWS V14.01,2013-01-13 19:02:00,
2013-01-13 14:07:00,49.1,49.1,17.60,ESE,122,2.2,2.2,100,0.00,,OVC005,0.00,VWS V14.01,2013-01-13 19:07:00,
2013-01-13 14:12:00,48.9,48.9,17.60,East,100,0.0,0.0,100,0.00,,OVC005,0.00,VWS V14.01,2013-01-13 19:12:00,
2013-01-13 14:17:00,48.7,48.7,17.60,ESE,108,3.1,3.1,100,0.00,,OVC005,0.00,VWS V14.01,2013-01-13 19:17:00,
2013-01-13 14:22:00,48.7,48.7,17.60,ENE,77,2.7,4.0,100,0.00,,OVC004,0.00,VWS V14.01,2013-01-13 19:22:00,
2013-01-13 14:27:00,48.7,48.7,17.60,East,87,2.2,2.2,100,0.00,,OVC004,0.00,VWS V14.01,2013-01-13 19:27:00,
2013-01-13 14:32:00,48.7,48.7,17.60,East,84,2.7,3.6,100,0.00,,OVC004,0.00,VWS V14.01,2013-01-13 19:32:00,
2013-01-13 14:37:00,48.7,48.7,17.60,ESE,117,0.0,0.0,100,0.00,,OVC004,0.00,VWS V14.01,2013-01-13 19:37:00,
2013-01-13 14:42:00,48.6,48.6,17.60,ESE,103,2.7,2.7,100,0.00,,OVC004,0.00,VWS V14.01,2013-01-13 19:42:00,
2013-01-13 14:47:00,48.6,48.6,17.60,ESE,110,0.0,0.0,100,0.00,,OVC004,0.00,VWS V14.01,2013-01-13 19:47:00,
2013-01-13 14:52:00,48.6,48.6,17.60,ESE,111,0.0,3.1,100,0.00,,OVC004,0.00,VWS V14.01,2013-01-13 19:52:00,
2013-01-13 14:57:00,48.6,48.6,17.60,SE,143,2.7,2.7,100,0.00,,OVC004,0.00,VWS V14.01,2013-01-13 19:57:00,
2013-01-13 15:02:00,48.6,48.6,17.60,ESE,118,2.2,2.2,100,0.00,,OVC004,0.00,VWS V14.01,2013-01-13 20:02:00,
2013-01-13 15:07:00,48.6,48.6,17.60,East,87,3.6,4.0,100,0.00,,OVC004,0.00,VWS V14.01,2013-01-13 20:07:00,
2013-01-13 15:12:00,48.7,48.7,17.60,East,90,2.2,2.2,100,0.00,,OVC004,0.00,VWS V14.01,2013-01-13 20:12:00,
2013-01-13 15:17:00,48.9,48.9,17.60,East,92,2.7,3.1,100,0.00,,OVC004,0.00,VWS V14.01,2013-01-13 20:17:00,
2013-01-13 15:22:00,48.7,48.7,17.60,East,86,0.0,3.6,100,0.00,,OVC003,0.00,VWS V14.01,2013-01-13 20:22:00,
2013-01-13 15:27:00,48.7,48.7,17.60,SE,144,0.0,0.0,100,0.00,,OVC003,0.00,VWS V14.01,2013-01-13 20:27:00,
2013-01-13 15:32:00,48.6,48.6,17.60,SE,139,0.0,0.0,100,0.00,,OVC003,0.00,VWS V14.01,2013-01-13 20:32:00,
2013-01-13 15:37:00,48.4,48.4,17.60,SE,129,0.0,0.0,100,0.00,,OVC003,0.00,VWS V14.01,2013-01-13 20:37:00,
2013-01-13 15:42:00,48.4,48.4,17.60,SE,135,3.1,3.1,100,0.00,,OVC002,0.00,VWS V14.01,2013-01-13 20:42:00,
2013-01-13 15:47:00,48.4,48.4,17.60,ESE,119,0.0,0.0,100,0.00,,OVC002,0.00,VWS V14.01,2013-01-13 20:47:00,
2013-01-13 15:52:00,48.4,48.4,17.60,ESE,115,0.0,3.1,100,0.00,,OVC002,0.00,VWS V14.01,2013-01-13 20:52:00,
2013-01-13 15:56:00,48.4,48.4,17.60,ESE,118,0.0,3.6,100,0.00,,OVC002,0.00,VWS V14.01,2013-01-13 20:56:00,
2013-01-13 16:02:00,48.4,48.4,17.60,ESE,115,3.1,3.1,100,0.00,,OVC002,0.00,VWS V14.01,2013-01-13 21:02:00,
2013-01-13 16:06:00,48.4,48.4,17.60,East,83,0.0,3.1,100,0.00,,OVC002,0.00,VWS V14.01,2013-01-13 21:06:00,
2013-01-13 16:11:00,48.2,48.2,17.60,ESE,114,3.6,3.6,100,0.00,,OVC002,0.00,VWS V14.01,2013-01-13 21:11:00,
2013-01-13 16:16:00,48.2,48.2,17.60,ESE,115,2.7,3.1,100,0.00,,OVC002,0.00,VWS V14.01,2013-01-13 21:16:00,
2013-01-13 16:21:00,48.2,48.2,17.60,ESE,114,0.0,3.1,100,0.00,,OVC002,0.00,VWS V14.01,2013-01-13 21:21:00,
2013-01-13 16:26:00,48.2,48.2,17.60,SE,141,0.0,0.0,100,0.00,,OVC002,0.00,VWS V14.01,2013-01-13 21:26:00,
2013-01-13 16:31:00,48.4,48.4,17.60,ESE,120,2.2,3.1,100,0.00,,OVC002,0.00,VWS V14.01,2013-01-13 21:31:00,
2013-01-13 16:36:00,48.4,48.4,17.60,SE,128,0.0,3.6,100,0.00,,OVC002,0.00,VWS V14.01,2013-01-13 21:36:00,
2013-01-13 16:41:00,48.4,48.4,17.60,ESE,122,0.0,2.2,100,0.00,,OVC002,0.00,VWS V14.01,2013-01-13 21:41:00,
2013-01-13 16:46:00,48.4,48.4,17.60,ESE,121,3.1,4.9,100,0.00,,OVC002,0.00,VWS V14.01,2013-01-13 21:46:00,
2013-01-13 16:51:00,48.4,48.4,17.60,SE,129,4.0,4.0,100,0.00,,OVC002,0.00,VWS V14.01,2013-01-13 21:51:00,
2013-01-13 16:56:00,48.2,48.2,17.60,SE,140,2.7,3.6,100,0.00,,OVC002,0.00,VWS V14.01,2013-01-13 21:56:00,
2013-01-13 17:01:00,48.2,48.2,17.60,ESE,114,2.2,3.1,100,0.00,,OVC002,0.00,VWS V14.01,2013-01-13 22:01:00,
2013-01-13 17:06:00,48.2,48.2,17.60,SE,131,3.1,3.1,100,0.00,,OVC002,0.00,VWS V14.01,2013-01-13 22:06:00,
2013-01-13 17:11:00,48.2,48.2,17.60,SE,132,3.1,3.6,100,0.00,,OVC002,0.00,VWS V14.01,2013-01-13 22:11:00,
2013-01-13 17:16:00,48.4,48.4,17.60,SE,133,2.7,3.6,100,0.00,,OVC002,0.00,VWS V14.01,2013-01-13 22:16:00,
2013-01-13 17:21:00,48.4,48.4,17.60,SE,128,0.0,4.5,100,0.00,,OVC002,0.00,VWS V14.01,2013-01-13 22:21:00,
2013-01-13 17:26:00,48.4,48.4,17.60,SSE,157,0.0,4.9,100,0.00,,OVC002,0.00,VWS V14.01,2013-01-13 22:26:00,
2013-01-13 17:31:00,48.4,48.4,17.60,SSE,150,0.0,2.7,100,0.00,,OVC002,0.00,VWS V14.01,2013-01-13 22:31:00,
2013-01-13 17:36:00,48.4,48.4,17.60,SE,146,3.6,3.6,100,0.00,,OVC002,0.00,VWS V14.01,2013-01-13 22:36:00,
2013-01-13 17:41:00,48.4,48.4,17.60,SSE,157,2.7,3.6,100,0.00,,OVC002,0.00,VWS V14.01,2013-01-13 22:41:00,
2013-01-13 17:46:00,48.6,48.6,17.60,SE,127,3.6,3.6,100,0.00,,OVC002,0.00,VWS V14.01,2013-01-13 22:46:00,
2013-01-13 17:51:00,48.7,48.7,17.60,SE,126,3.6,3.6,100,0.00,,OVC002,0.00,VWS V14.01,2013-01-13 22:51:00,
2013-01-13 17:56:00,48.7,48.7,17.60,SE,125,2.7,3.1,100,0.00,,OVC002,0.00,VWS V14.01,2013-01-13 22:56:00,
2013-01-13 18:01:00,48.7,48.7,17.60,SE,124,2.7,3.6,100,0.00,,OVC002,0.00,VWS V14.01,2013-01-13 23:01:00,
2013-01-13 18:06:00,48.7,48.7,17.60,SE,129,3.6,3.6,100,0.00,,OVC002,0.00,VWS V14.01,2013-01-13 23:06:00,
2013-01-13 18:11:00,48.7,48.7,17.60,ESE,120,2.7,3.6,100,0.00,,OVC002,0.00,VWS V14.01,2013-01-13 23:11:00,
2013-01-13 18:16:00,48.6,48.6,17.60,SE,140,3.6,3.6,100,0.00,,OVC002,0.00,VWS V14.01,2013-01-13 23:16:00,
2013-01-13 18:21:00,48.6,48.6,17.60,SE,128,3.1,3.6,100,0.00,,OVC002,0.00,VWS V14.01,2013-01-13 23:21:00,
2013-01-13 18:26:00,48.6,48.6,17.60,ESE,123,2.7,4.0,100,0.00,,OVC002,0.00,VWS V14.01,2013-01-13 23:26:00,
2013-01-13 18:31:00,48.6,48.6,17.60,ESE,109,3.1,3.6,100,0.00,,OVC002,0.00,VWS V14.01,2013-01-13 23:31:00,
2013-01-13 18:36:00,48.6,48.6,17.60,SE,131,3.6,4.0,100,0.00,,OVC002,0.00,VWS V14.01,2013-01-13 23:36:00,
2013-01-13 18:41:00,48.7,48.7,17.60,ESE,118,3.1,4.0,100,0.00,,OVC002,0.00,VWS V14.01,2013-01-13 23:41:00,
2013-01-13 18:46:00,48.7,48.7,17.60,ESE,114,2.7,4.0,100,0.00,,OVC002,0.00,VWS V14.01,2013-01-13 23:46:00,
2013-01-13 18:51:00,48.7,48.7,17.60,SE,139,3.6,3.6,100,0.00,,OVC002,0.00,VWS V14.01,2013-01-13 23:51:00,
2013-01-13 18:56:00,48.7,48.7,17.60,SSE,157,2.7,3.1,100,0.00,,OVC002,0.00,VWS V14.01,2013-01-13 23:56:00,
2013-01-13 19:01:00,48.7,48.7,17.60,SSE,161,2.2,2.7,100,0.00,,OVC002,0.00,VWS V14.01,2013-01-14 00:01:00,
2013-01-13 19:06:00,48.7,48.7,17.60,SSE,153,4.0,4.0,100,0.00,,OVC002,0.00,VWS V14.01,2013-01-14 00:06:00,
2013-01-13 19:11:00,48.7,48.7,17.60,SSE,165,2.2,4.0,100,0.00,,OVC002,0.00,VWS V14.01,2013-01-14 00:11:00,
2013-01-13 19:16:00,48.9,48.9,17.60,SSE,158,2.7,3.6,100,0.00,,OVC002,0.00,VWS V14.01,2013-01-14 00:16:00,
2013-01-13 19:21:00,49.1,49.1,17.60,SE,137,2.7,4.0,100,0.00,,OVC002,0.00,VWS V14.01,2013-01-14 00:21:00,
2013-01-13 19:26:00,49.3,49.3,17.60,SSE,152,2.7,2.7,100,0.00,,OVC002,0.00,VWS V14.01,2013-01-14 00:26:00,
2013-01-13 19:31:00,49.5,49.5,17.60,SSE,148,2.7,2.7,100,0.00,,OVC002,0.00,VWS V14.01,2013-01-14 00:31:00,
2013-01-13 19:36:00,49.5,49.5,17.60,SSE,157,3.1,5.8,100,0.00,,OVC002,0.00,VWS V14.01,2013-01-14 00:36:00,
2013-01-13 19:41:00,49.5,49.5,17.60,SSE,163,4.0,4.0,100,0.00,,OVC002,0.00,VWS V14.01,2013-01-14 00:41:00,
2013-01-13 19:46:00,49.5,49.5,17.60,SSE,156,4.9,5.4,100,0.00,,OVC002,0.00,VWS V14.01,2013-01-14 00:46:00,
2013-01-13 19:51:00,49.6,49.6,17.60,SSE,164,3.6,4.9,100,0.00,,OVC002,0.00,VWS V14.01,2013-01-14 00:51:00,
2013-01-13 19:56:00,49.8,49.8,17.60,SSE,166,3.6,5.4,100,0.00,,OVC002,0.00,VWS V14.01,2013-01-14 00:56:00,
2013-01-13 20:01:00,49.8,49.8,17.60,South,182,0.0,0.0,100,0.00,,OVC002,0.00,VWS V14.01,2013-01-14 01:01:00,
2013-01-13 20:06:00,49.8,49.8,17.60,SSE,156,0.0,0.0,100,0.00,,OVC002,0.00,VWS V14.01,2013-01-14 01:06:00,
2013-01-13 20:11:00,49.8,49.8,17.60,SE,142,0.0,0.0,100,0.00,,OVC002,0.00,VWS V14.01,2013-01-14 01:11:00,
2013-01-13 20:16:00,49.6,49.6,17.60,SSE,154,0.0,0.0,100,0.00,,OVC002,0.00,VWS V14.01,2013-01-14 01:16:00,
2013-01-13 20:21:00,49.5,49.5,17.60,SSE,152,0.0,0.0,100,0.00,,OVC002,0.00,VWS V14.01,2013-01-14 01:21:00,
2013-01-13 20:26:00,49.3,49.3,17.60,SE,143,0.0,0.0,100,0.00,,OVC002,0.00,VWS V14.01,2013-01-14 01:26:00,
2013-01-13 20:31:00,48.9,48.9,17.60,SE,143,0.0,0.0,100,0.00,,OVC002,0.00,VWS V14.01,2013-01-14 01:31:00,
2013-01-13 20:36:00,48.7,48.7,17.60,SE,143,0.0,0.0,100,0.00,,OVC002,0.00,VWS V14.01,2013-01-14 01:36:00,
2013-01-13 20:41:00,48.7,48.7,17.60,SE,143,0.0,0.0,100,0.00,,OVC002,0.00,VWS V14.01,2013-01-14 01:41:00,
2013-01-13 20:46:00,48.7,48.7,17.60,SE,143,0.0,0.0,100,0.00,,OVC002,0.00,VWS V14.01,2013-01-14 01:46:00,
2013-01-13 20:51:00,48.6,48.6,17.60,SE,143,0.0,0.0,100,0.00,,OVC002,0.00,VWS V14.01,2013-01-14 01:51:00,
2013-01-13 20:56:00,48.6,48.6,17.60,SE,143,0.0,0.0,100,0.00,,OVC002,0.00,VWS V14.01,2013-01-14 01:56:00,
2013-01-13 21:01:00,48.6,48.6,17.60,SE,143,0.0,0.0,100,0.00,,OVC002,0.00,VWS V14.01,2013-01-14 02:01:00,
2013-01-13 21:06:00,48.6,48.6,17.60,SE,143,0.0,0.0,100,0.00,,OVC002,0.00,VWS V14.01,2013-01-14 02:06:00,
2013-01-13 21:11:00,48.6,48.6,17.60,SE,143,0.0,0.0,100,0.00,,OVC002,0.00,VWS V14.01,2013-01-14 02:11:00,
2013-01-13 21:16:00,48.6,48.6,17.60,SE,143,0.0,0.0,100,0.00,,OVC002,0.00,VWS V14.01,2013-01-14 02:16:00,
2013-01-13 21:21:00,48.6,48.6,17.60,SE,143,0.0,0.0,100,0.00,,OVC002,0.00,VWS V14.01,2013-01-14 02:21:00,
2013-01-13 21:26:00,48.6,48.6,17.60,SE,143,0.0,0.0,100,0.00,,OVC002,0.00,VWS V14.01,2013-01-14 02:26:00,
2013-01-13 21:31:00,48.4,48.4,17.60,SE,143,0.0,0.0,100,0.00,,OVC002,0.00,VWS V14.01,2013-01-14 02:31:00,
2013-01-13 21:36:00,48.4,48.4,17.60,SE,143,0.0,0.0,100,0.00,,OVC002,0.00,VWS V14.01,2013-01-14 02:36:00,
2013-01-13 21:41:00,48.4,48.4,17.60,SE,140,0.0,0.0,100,0.00,,OVC002,0.00,VWS V14.01,2013-01-14 02:41:00,
2013-01-13 21:46:00,48.4,48.4,17.60,SE,139,0.0,0.0,100,0.00,,OVC002,0.00,VWS V14.01,2013-01-14 02:46:00,
2013-01-13 21:51:00,48.4,48.4,17.60,SE,139,0.0,0.0,100,0.00,,OVC002,0.00,VWS V14.01,2013-01-14 02:51:00,
2013-01-13 21:56:00,48.4,48.4,17.60,SE,139,0.0,0.0,100,0.00,,OVC002,0.00,VWS V14.01,2013-01-14 02:56:00,
2013-01-13 22:01:00,48.6,48.6,17.60,SE,139,0.0,0.0,100,0.00,,OVC002,0.00,VWS V14.01,2013-01-14 03:01:00,
2013-01-13 22:06:00,48.7,48.7,17.60,SE,139,0.0,0.0,100,0.00,,OVC002,0.00,VWS V14.01,2013-01-14 03:06:00,
2013-01-13 22:11:00,49.1,49.1,17.60,SE,138,0.0,0.0,100,0.00,,OVC002,0.00,VWS V14.01,2013-01-14 03:11:00,
2013-01-13 22:16:00,49.3,49.3,17.60,SE,138,0.0,0.0,100,0.00,,OVC002,0.00,VWS V14.01,2013-01-14 03:16:00,
2013-01-13 22:21:00,48.9,48.9,17.60,SE,133,0.0,0.0,100,0.00,,OVC002,0.00,VWS V14.01,2013-01-14 03:21:00,
2013-01-13 22:26:00,48.6,48.6,17.60,SE,133,0.0,0.0,100,0.00,,OVC002,0.00,VWS V14.01,2013-01-14 03:26:00,
2013-01-13 22:31:00,48.6,48.6,17.60,SE,133,0.0,0.0,100,0.00,,OVC002,0.00,VWS V14.01,2013-01-14 03:31:00,
2013-01-13 22:36:00,48.4,48.4,17.60,ESE,121,0.0,0.0,100,0.00,,OVC002,0.00,VWS V14.01,2013-01-14 03:36:00,
2013-01-13 22:41:00,48.2,48.2,17.60,ESE,116,0.0,0.0,100,0.00,,OVC002,0.00,VWS V14.01,2013-01-14 03:41:00,
2013-01-13 22:46:00,48.0,48.0,17.60,ESE,108,0.0,0.0,100,0.00,,OVC002,0.00,VWS V14.01,2013-01-14 03:46:00,
2013-01-13 22:51:00,48.0,48.0,17.60,ESE,114,0.0,0.0,100,0.00,,OVC002,0.00,VWS V14.01,2013-01-14 03:51:00,
2013-01-13 22:56:00,47.8,47.8,17.60,ESE,108,0.0,0.0,100,0.00,,OVC002,0.00,VWS V14.01,2013-01-14 03:56:00,
2013-01-13 23:01:00,47.8,47.8,17.60,ESE,113,0.0,0.0,100,0.00,,OVC002,0.00,VWS V14.01,2013-01-14 04:01:00,
2013-01-13 23:06:00,47.7,47.7,17.60,ESE,112,0.0,0.0,100,0.00,,OVC002,0.00,VWS V14.01,2013-01-14 04:06:00,
2013-01-13 23:11:00,47.7,47.7,17.60,ESE,112,0.0,0.0,100,0.00,,OVC002,0.00,VWS V14.01,2013-01-14 04:11:00,
2013-01-13 23:16:00,47.8,47.8,17.60,SE,124,0.0,2.2,100,0.00,,OVC002,0.00,VWS V14.01,2013-01-14 04:16:00,
2013-01-13 23:21:00,48.0,48.0,17.60,SE,125,0.0,0.0,100,0.00,,OVC002,0.00,VWS V14.01,2013-01-14 04:21:00,
2013-01-13 23:26:00,48.2,48.2,17.60,ESE,106,0.0,0.0,100,0.00,,OVC002,0.00,VWS V14.01,2013-01-14 04:26:00,
2013-01-13 23:31:00,48.0,48.0,17.60,ESE,120,0.0,0.0,100,0.00,,OVC002,0.00,VWS V14.01,2013-01-14 04:31:00,
2013-01-13 23:36:00,47.7,47.7,17.60,ESE,110,0.0,0.0,100,0.00,,OVC002,0.00,VWS V14.01,2013-01-14 04:36:00,
2013-01-13 23:41:00,47.7,47.7,17.60,ESE,105,0.0,0.0,100,0.00,,OVC002,0.00,VWS V14.01,2013-01-14 04:41:00,
2013-01-13 23:46:00,47.5,47.5,17.60,ESE,110,0.0,2.2,100,0.00,,OVC002,0.00,VWS V14.01,2013-01-14 04:46:00,
2013-01-13 23:51:00,47.5,47.5,17.60,ESE,120,0.0,0.0,100,0.00,,OVC002,0.00,VWS V14.01,2013-01-14 04:51:00,
2013-01-13 23:56:00,47.5,47.5,17.60,East,93,0.0,0.0,100,0.00,,OVC002,0.00,VWS V14.01,2013-01-14 04:56:00,